IBE352 LEMD-EGLL

Flight info

Callsign IBE352
Flight time 1h 43m
Altitude 34000
Route SIE N858 DGO N867 NENEM DCT DIDIG UP87 ROXOG
Aircraft A346/H-SDE2E3FGHIJ3J4J5M1RWXY/LB1D1

Departure

Time 2026-05-01 13:07
Airport Adolfo Suárez Madrid–Barajas Airport (LEMD)

Arrival

Time 2026-05-01 14:50
Airport London Heathrow Airport (EGLL)
Time Latitude Longitude Altitude Speed Heading
2026-05-01 12:41 40.48880 -3.58964 2043 ft 0 kts 270°
2026-05-01 12:51 40.48880 -3.58963 2043 ft 1 kts 270°
2026-05-01 12:52 40.48880 -3.58944 2043 ft 2 kts 278°
2026-05-01 12:52 40.48871 -3.58906 2042 ft 2 kts 295°
2026-05-01 12:52 40.48864 -3.58888 2042 ft 2 kts 303°
2026-05-01 12:53 40.48845 -3.58859 2042 ft 2 kts 319°
2026-05-01 12:53 40.48833 -3.58846 2042 ft 2 kts 326°
2026-05-01 12:53 40.48820 -3.58837 2042 ft 2 kts 334°
2026-05-01 12:54 40.48806 -3.58829 2042 ft 2 kts 342°
2026-05-01 12:54 40.48777 -3.58822 2043 ft 2 kts 358°
2026-05-01 12:54 40.48771 -3.58822 2043 ft 0 kts
2026-05-01 12:59 40.48772 -3.58822 2043 ft 1 kts
2026-05-01 13:00 40.48857 -3.58822 2041 ft 10 kts 360°
2026-05-01 13:00 40.48945 -3.58821 2039 ft 14 kts 360°
2026-05-01 13:01 40.49172 -3.58821 2039 ft 16 kts 359°
2026-05-01 13:01 40.49234 -3.58759 2039 ft 13 kts 79°
2026-05-01 13:01 40.49243 -3.58436 2031 ft 20 kts 90°
2026-05-01 13:02 40.49242 -3.58235 2027 ft 23 kts 89°
2026-05-01 13:07 40.58668 -3.62565 5417 ft 237 kts 315°
2026-05-01 13:07 40.59986 -3.63919 6021 ft 241 kts 323°
2026-05-01 13:07 40.61365 -3.65201 6661 ft 243 kts 323°
2026-05-01 13:08 40.62725 -3.66532 7225 ft 247 kts 322°
2026-05-01 13:08 40.64278 -3.67689 7575 ft 265 kts 347°
2026-05-01 13:08 40.66161 -3.67729 7970 ft 279 kts
2026-05-01 13:08 40.68132 -3.67372 8400 ft 294 kts
2026-05-01 13:09 40.70187 -3.67044 9066 ft 300 kts
2026-05-01 13:09 40.72271 -3.66705 9808 ft 302 kts
2026-05-01 13:09 40.74368 -3.66378 10485 ft 307 kts
2026-05-01 13:09 40.76550 -3.66058 10885 ft 321 kts
2026-05-01 13:10 40.78846 -3.65728 11221 ft 339 kts
2026-05-01 13:10 40.81263 -3.65362 11545 ft 357 kts
2026-05-01 13:10 40.83820 -3.64990 11900 ft 375 kts
2026-05-01 13:10 40.86473 -3.64616 12305 ft 392 kts
2026-05-01 13:11 40.89223 -3.64227 12974 ft 399 kts
2026-05-01 13:11 40.92014 -3.63828 13750 ft 402 kts
2026-05-01 13:11 40.94826 -3.63421 14487 ft 406 kts
2026-05-01 13:11 40.97653 -3.63022 15164 ft 411 kts
2026-05-01 13:12 41.00516 -3.62624 15834 ft 416 kts
2026-05-01 13:12 41.03433 -3.62209 16467 ft 420 kts
2026-05-01 13:12 41.06345 -3.61783 17100 ft 424 kts
2026-05-01 13:12 41.09334 -3.61341 17734 ft 428 kts
2026-05-01 13:13 41.12299 -3.60904 18337 ft 432 kts
2026-05-01 13:13 41.15336 -3.60451 18939 ft 436 kts
2026-05-01 13:13 41.18346 -3.59805 19516 ft 440 kts 11°
2026-05-01 13:13 41.21331 -3.58774 20095 ft 444 kts 16°
2026-05-01 13:14 41.24242 -3.57355 20658 ft 448 kts 22°
2026-05-01 13:14 41.27098 -3.55521 21226 ft 452 kts 28°
2026-05-01 13:14 41.29800 -3.53398 21781 ft 456 kts 30°
2026-05-01 13:14 41.32574 -3.51299 22330 ft 459 kts 27°
2026-05-01 13:15 41.35508 -3.49448 22878 ft 462 kts 23°
2026-05-01 13:15 41.38475 -3.47740 23411 ft 466 kts 22°
2026-05-01 13:15 41.41482 -3.46072 23926 ft 469 kts 21°
2026-05-01 13:15 41.44520 -3.44406 24427 ft 472 kts 21°
2026-05-01 13:16 41.47565 -3.42736 24921 ft 475 kts 21°
2026-05-01 13:16 41.50679 -3.41025 25423 ft 478 kts 21°
2026-05-01 13:16 41.53744 -3.39336 25902 ft 481 kts 21°
2026-05-01 13:17 41.63153 -3.34139 27324 ft 490 kts 22°
2026-05-01 13:17 41.66316 -3.32388 27810 ft 492 kts 21°
2026-05-01 13:18 41.72650 -3.28877 29089 ft 486 kts 21°
2026-05-01 13:18 41.75762 -3.27149 29736 ft 483 kts 21°
2026-05-01 13:18 41.78857 -3.25429 30357 ft 481 kts 21°
2026-05-01 13:18 41.81963 -3.23702 30979 ft 480 kts 21°
2026-05-01 13:19 41.85037 -3.21991 31625 ft 477 kts 21°
2026-05-01 13:19 41.88129 -3.20268 32265 ft 475 kts 21°
2026-05-01 13:19 41.94246 -3.16853 33387 ft 474 kts 21°
2026-05-01 13:20 41.97301 -3.15147 33835 ft 476 kts 21°
2026-05-01 13:20 42.00377 -3.13427 34242 ft 478 kts 21°
2026-05-01 13:20 42.03470 -3.11696 34388 ft 479 kts 21°
2026-05-01 13:21 42.12755 -3.06484 34356 ft 477 kts 21°
2026-05-01 13:21 42.18908 -3.03021 34322 ft 477 kts 21°
2026-05-01 13:22 42.25039 -2.99561 34226 ft 478 kts 21°
2026-05-01 13:22 42.31226 -2.96063 34189 ft 479 kts 21°
2026-05-01 13:23 42.37433 -2.92614 34178 ft 479 kts 19°
2026-05-01 13:23 42.43808 -2.90064 34158 ft 478 kts 11°
2026-05-01 13:24 42.50393 -2.88716 34143 ft 476 kts
2026-05-01 13:25 42.60371 -2.88748 34148 ft 475 kts 356°
2026-05-01 13:25 42.67000 -2.89131 34150 ft 475 kts 356°
2026-05-01 13:26 42.73678 -2.89500 34155 ft 475 kts 356°
2026-05-01 13:26 42.80295 -2.89853 34157 ft 475 kts 356°
2026-05-01 13:27 42.86946 -2.90205 34154 ft 475 kts 356°
2026-05-01 13:27 42.96860 -2.90729 34149 ft 475 kts 356°
2026-05-01 13:28 43.06831 -2.91258 34138 ft 475 kts 356°
2026-05-01 13:29 43.20093 -2.91967 34120 ft 475 kts 356°
2026-05-01 13:31 43.39759 -2.95368 34108 ft 473 kts 345°
2026-05-01 13:32 43.55881 -3.00457 34093 ft 472 kts 345°
2026-05-01 13:33 43.71977 -3.05457 34093 ft 472 kts 347°
2026-05-01 13:34 43.84881 -3.09136 34095 ft 472 kts 347°
2026-05-01 13:35 43.94426 -3.11897 34096 ft 472 kts 347°
2026-05-01 13:36 44.04212 -3.13164 34098 ft 475 kts
2026-05-01 13:36 44.14053 -3.11161 34099 ft 477 kts 14°
2026-05-01 13:37 44.20260 -3.08525 34100 ft 478 kts 16°
2026-05-01 13:37 44.26489 -3.05763 34103 ft 478 kts 16°
2026-05-01 13:38 44.36041 -3.01552 34109 ft 478 kts 16°
2026-05-01 13:39 44.42410 -2.98751 34110 ft 478 kts 16°
2026-05-01 13:39 44.48794 -2.95939 34112 ft 478 kts 16°
2026-05-01 13:40 44.55195 -2.93114 34113 ft 479 kts 16°
2026-05-01 13:40 44.61544 -2.90306 34114 ft 479 kts 16°
2026-05-01 13:41 44.67941 -2.87471 34118 ft 479 kts 16°
2026-05-01 13:41 44.74293 -2.84648 34129 ft 479 kts 16°
2026-05-01 13:42 44.80712 -2.81790 34139 ft 479 kts 16°
2026-05-01 13:42 44.87067 -2.78952 34144 ft 480 kts 16°
2026-05-01 13:43 44.93453 -2.76095 34144 ft 480 kts 16°
2026-05-01 13:43 44.99854 -2.73225 34144 ft 480 kts 16°
2026-05-01 13:44 45.06264 -2.70343 34144 ft 480 kts 16°
2026-05-01 13:44 45.12612 -2.67485 34145 ft 480 kts 16°
2026-05-01 13:45 45.19015 -2.64594 34146 ft 480 kts 16°
2026-05-01 13:45 45.25405 -2.61699 34147 ft 481 kts 16°
2026-05-01 13:46 45.31823 -2.58783 34149 ft 481 kts 16°
2026-05-01 13:46 45.38030 -2.55958 34150 ft 481 kts 16°
2026-05-01 13:47 45.44422 -2.53043 34152 ft 481 kts 16°
2026-05-01 13:47 45.50811 -2.50123 34154 ft 481 kts 16°
2026-05-01 13:48 45.57230 -2.47183 34157 ft 481 kts 16°
2026-05-01 13:48 45.63604 -2.44256 34159 ft 482 kts 16°
2026-05-01 13:49 45.70034 -2.41296 34160 ft 482 kts 16°
2026-05-01 13:49 45.76350 -2.38382 34162 ft 482 kts 16°
2026-05-01 13:50 45.82646 -2.35471 34164 ft 482 kts 16°
2026-05-01 13:50 45.89034 -2.32511 34165 ft 482 kts 17°
2026-05-01 13:51 45.95442 -2.29533 34167 ft 482 kts 17°
2026-05-01 13:51 46.01891 -2.26540 34167 ft 482 kts 16°
2026-05-01 13:52 46.08413 -2.24192 34171 ft 481 kts
2026-05-01 13:52 46.15058 -2.22526 34177 ft 481 kts
2026-05-01 13:53 46.21696 -2.20936 34182 ft 481 kts
2026-05-01 13:53 46.31637 -2.18520 34181 ft 481 kts
2026-05-01 13:54 46.38257 -2.16894 34181 ft 481 kts
2026-05-01 13:54 46.44902 -2.15258 34182 ft 481 kts
2026-05-01 13:55 46.51501 -2.13628 34184 ft 481 kts
2026-05-01 13:55 46.58135 -2.11983 34186 ft 480 kts
2026-05-01 13:56 46.64746 -2.10341 34189 ft 480 kts
2026-05-01 13:56 46.71369 -2.08695 34192 ft 480 kts
2026-05-01 13:57 46.77978 -2.07050 34191 ft 479 kts
2026-05-01 13:57 46.84568 -2.05404 34188 ft 479 kts
2026-05-01 13:58 46.91135 -2.03767 34189 ft 478 kts
2026-05-01 13:58 46.97741 -2.02113 34193 ft 478 kts
2026-05-01 13:59 47.04327 -2.00462 34194 ft 477 kts
2026-05-01 13:59 47.10906 -1.98832 34191 ft 476 kts
2026-05-01 14:00 47.17467 -1.97207 34189 ft 474 kts
2026-05-01 14:00 47.23997 -1.95585 34192 ft 473 kts
2026-05-01 14:01 47.30470 -1.94062 34194 ft 471 kts
2026-05-01 14:01 47.37068 -1.93377 34196 ft 469 kts 359°
2026-05-01 14:02 47.43559 -1.93722 34198 ft 468 kts 354°
2026-05-01 14:02 47.50066 -1.94456 34199 ft 467 kts 354°
2026-05-01 14:03 47.56591 -1.95040 34199 ft 467 kts 358°
2026-05-01 14:03 47.63118 -1.94584 34200 ft 468 kts
2026-05-01 14:04 47.69543 -1.92933 34201 ft 469 kts 12°
2026-05-01 14:04 47.74777 -1.90667 34203 ft 470 kts 17°
2026-05-01 14:05 47.82013 -1.86961 34203 ft 469 kts 18°
2026-05-01 14:05 47.88231 -1.83756 34202 ft 469 kts 17°
2026-05-01 14:06 47.94416 -1.80588 34202 ft 469 kts 17°
2026-05-01 14:06 48.00624 -1.77576 34203 ft 468 kts 14°
2026-05-01 14:07 48.06993 -1.75457 34204 ft 467 kts
2026-05-01 14:08 48.16711 -1.74228 34208 ft 465 kts 359°
2026-05-01 14:08 48.23231 -1.74285 34210 ft 465 kts 358°
2026-05-01 14:09 48.29716 -1.74391 34210 ft 465 kts 358°
2026-05-01 14:09 48.36248 -1.74484 34210 ft 465 kts 358°
2026-05-01 14:10 48.42740 -1.74568 34210 ft 466 kts 358°
2026-05-01 14:10 48.49256 -1.74649 34209 ft 466 kts 358°
2026-05-01 14:11 48.55754 -1.74731 34209 ft 466 kts 358°
2026-05-01 14:11 48.65536 -1.74855 34208 ft 467 kts 358°
2026-05-01 14:12 48.72087 -1.74937 34208 ft 468 kts 358°
2026-05-01 14:12 48.78631 -1.75021 34209 ft 468 kts 358°
2026-05-01 14:13 48.84099 -1.75091 34210 ft 469 kts 358°
2026-05-01 14:13 48.91753 -1.75182 34210 ft 471 kts 359°
2026-05-01 14:14 48.98356 -1.74961 34211 ft 472 kts
2026-05-01 14:14 49.04923 -1.74671 34212 ft 473 kts
2026-05-01 14:15 49.11558 -1.74401 34211 ft 475 kts
2026-05-01 14:15 49.18175 -1.74144 34211 ft 476 kts
2026-05-01 14:16 49.24859 -1.73888 34211 ft 477 kts
2026-05-01 14:16 49.31479 -1.73630 34210 ft 477 kts
2026-05-01 14:17 49.38186 -1.73370 34210 ft 479 kts
2026-05-01 14:17 49.44861 -1.73112 34209 ft 480 kts
2026-05-01 14:18 49.51566 -1.72854 34208 ft 481 kts
2026-05-01 14:18 49.57246 -1.72634 34207 ft 481 kts
2026-05-01 14:19 49.65166 -1.72144 34206 ft 481 kts
2026-05-01 14:19 49.71941 -1.71530 33741 ft 485 kts
2026-05-01 14:20 49.75296 -1.71233 32960 ft 492 kts
2026-05-01 14:20 49.82204 -1.70641 31554 ft 494 kts
2026-05-01 14:20 49.85624 -1.70353 30746 ft 495 kts
2026-05-01 14:21 49.89082 -1.70061 29941 ft 497 kts
2026-05-01 14:21 49.92444 -1.69779 29207 ft 498 kts
2026-05-01 14:21 49.95922 -1.69461 28423 ft 498 kts
2026-05-01 14:22 50.02731 -1.67752 26917 ft 493 kts 15°
2026-05-01 14:22 50.06039 -1.66301 26380 ft 484 kts 19°
2026-05-01 14:22 50.09151 -1.64444 25881 ft 476 kts 25°
2026-05-01 14:22 50.12141 -1.62305 25367 ft 470 kts 27°
2026-05-01 14:23 50.15114 -1.60099 24869 ft 463 kts 27°
2026-05-01 14:23 50.18003 -1.57966 24397 ft 465 kts 27°
2026-05-01 14:23 50.20873 -1.55876 23955 ft 463 kts 26°
2026-05-01 14:23 50.23791 -1.53774 23521 ft 459 kts 26°
2026-05-01 14:24 50.26666 -1.51717 23094 ft 456 kts 26°
2026-05-01 14:24 50.29577 -1.49646 22661 ft 452 kts 26°
2026-05-01 14:24 50.32455 -1.47600 22240 ft 449 kts 26°
2026-05-01 14:24 50.35281 -1.45593 21819 ft 446 kts 26°
2026-05-01 14:25 50.38109 -1.43581 21392 ft 443 kts 26°
2026-05-01 14:25 50.40914 -1.41585 20962 ft 439 kts 26°
2026-05-01 14:25 50.43703 -1.39592 20531 ft 436 kts 26°
2026-05-01 14:25 50.46458 -1.37619 20099 ft 432 kts 26°
2026-05-01 14:26 50.49191 -1.35663 19669 ft 429 kts 26°
2026-05-01 14:26 50.54643 -1.31757 18841 ft 423 kts 26°
2026-05-01 14:26 50.57294 -1.29854 18338 ft 419 kts 27°
2026-05-01 14:27 50.59958 -1.27938 17925 ft 414 kts 27°
2026-05-01 14:27 50.62588 -1.26043 17510 ft 411 kts 27°
2026-05-01 14:27 50.65191 -1.24164 17109 ft 408 kts 26°
2026-05-01 14:28 50.70373 -1.20424 16283 ft 403 kts 26°
2026-05-01 14:28 50.72928 -1.18577 15869 ft 402 kts 26°
2026-05-01 14:28 50.75509 -1.16707 15437 ft 400 kts 26°
2026-05-01 14:28 50.78056 -1.14860 15014 ft 397 kts 26°
2026-05-01 14:29 50.80547 -1.13051 14601 ft 395 kts 26°
2026-05-01 14:29 50.83050 -1.11232 14185 ft 392 kts 27°
2026-05-01 14:30 50.90357 -1.05906 13550 ft 360 kts 26°
2026-05-01 14:30 50.92607 -1.04265 13446 ft 348 kts 26°
2026-05-01 14:30 50.94773 -1.02692 13351 ft 336 kts 27°
2026-05-01 14:31 50.99022 -0.98847 13101 ft 362 kts 46°
2026-05-01 14:31 51.00774 -0.95928 12228 ft 362 kts 51°
2026-05-01 14:31 51.02448 -0.92915 11116 ft 364 kts 51°
2026-05-01 14:31 51.04113 -0.90014 10652 ft 344 kts 50°
2026-05-01 14:32 51.05720 -0.87306 10627 ft 322 kts 49°
2026-05-01 14:32 51.07251 -0.84779 10560 ft 309 kts 49°
2026-05-01 14:32 51.08721 -0.82385 10473 ft 297 kts 49°
2026-05-01 14:32 51.10173 -0.80036 10387 ft 288 kts 49°
2026-05-01 14:33 51.11577 -0.77768 10302 ft 284 kts 49°
2026-05-01 14:33 51.12971 -0.75510 10221 ft 283 kts 49°
2026-05-01 14:33 51.14365 -0.73257 10137 ft 283 kts 49°
2026-05-01 14:33 51.15766 -0.70988 9836 ft 284 kts 49°
2026-05-01 14:34 51.17151 -0.68749 9522 ft 283 kts 49°
2026-05-01 14:34 51.18499 -0.66443 9217 ft 281 kts 51°
2026-05-01 14:34 51.19794 -0.64099 8920 ft 280 kts 52°
2026-05-01 14:34 51.21096 -0.61727 8626 ft 279 kts 52°
2026-05-01 14:35 51.22379 -0.59397 8340 ft 278 kts 52°
2026-05-01 14:35 51.23676 -0.57020 8165 ft 290 kts 51°
2026-05-01 14:35 51.25039 -0.54540 8157 ft 294 kts 50°
2026-05-01 14:35 51.26399 -0.52106 8156 ft 295 kts 50°
2026-05-01 14:36 51.27778 -0.49645 8145 ft 286 kts 50°
2026-05-01 14:36 51.29064 -0.47315 8129 ft 270 kts 50°
2026-05-01 14:36 51.30172 -0.44900 8023 ft 268 kts 65°
2026-05-01 14:36 51.30991 -0.42213 7619 ft 272 kts 68°
2026-05-01 14:37 51.31802 -0.39390 7247 ft 284 kts 66°
2026-05-01 14:37 51.32697 -0.36492 7165 ft 287 kts 66°
2026-05-01 14:37 51.33596 -0.33654 7161 ft 287 kts 66°
2026-05-01 14:37 51.34509 -0.30795 7161 ft 287 kts 66°
2026-05-01 14:38 51.35426 -0.27938 7118 ft 286 kts 66°
2026-05-01 14:38 51.36344 -0.25078 6651 ft 289 kts 66°
2026-05-01 14:38 51.37255 -0.22256 6051 ft 285 kts 66°
2026-05-01 14:38 51.38164 -0.19444 5483 ft 280 kts 66°
2026-05-01 14:39 51.39069 -0.16661 4916 ft 276 kts 66°
2026-05-01 14:39 51.39942 -0.13939 4368 ft 273 kts 66°
2026-05-01 14:39 51.40796 -0.11301 4048 ft 260 kts 66°
2026-05-01 14:39 51.41602 -0.08818 4000 ft 238 kts 66°
2026-05-01 14:40 51.42353 -0.06499 4040 ft 233 kts 66°
2026-05-01 14:40 51.43098 -0.04173 4020 ft 232 kts 66°
2026-05-01 14:40 51.43834 -0.01841 4012 ft 232 kts 66°
2026-05-01 14:40 51.44559 0.00469 4007 ft 232 kts 66°
2026-05-01 14:41 51.45277 0.02783 4005 ft 232 kts 66°
2026-05-01 14:41 51.45997 0.05114 4005 ft 232 kts 66°
2026-05-01 14:41 51.46721 0.07468 4007 ft 231 kts 66°
2026-05-01 14:41 51.47430 0.09737 4029 ft 223 kts 62°
2026-05-01 14:42 51.48495 0.11416 3983 ft 210 kts 25°
2026-05-01 14:42 51.49926 0.11706 3985 ft 206 kts 346°
2026-05-01 14:42 51.51144 0.10575 3998 ft 201 kts 306°
2026-05-01 14:42 51.51640 0.08544 4000 ft 193 kts 267°
2026-05-01 14:43 51.51301 0.06531 4019 ft 187 kts 241°
2026-05-01 14:43 51.50680 0.04680 4020 ft 186 kts 237°
2026-05-01 14:43 51.50027 0.02876 4011 ft 186 kts 236°
2026-05-01 14:43 51.49368 0.01064 4008 ft 186 kts 236°
2026-05-01 14:44 51.48766 -0.00809 4007 ft 187 kts 243°
2026-05-01 14:44 51.47958 -0.04862 4005 ft 190 kts 256°
2026-05-01 14:44 51.47831 -0.06999 4006 ft 192 kts 265°
2026-05-01 14:45 51.47856 -0.09137 4003 ft 192 kts 268°
2026-05-01 14:45 51.47926 -0.13428 3592 ft 190 kts 266°
2026-05-01 14:45 51.47928 -0.15571 3345 ft 189 kts 265°
2026-05-01 14:46 51.47920 -0.17627 3090 ft 181 kts 265°
2026-05-01 14:46 51.47891 -0.21456 2674 ft 163 kts 265°
2026-05-01 14:46 51.47875 -0.23301 2499 ft 163 kts 265°
2026-05-01 14:47 51.47860 -0.25120 2320 ft 163 kts 265°
2026-05-01 14:47 51.47846 -0.26947 2113 ft 162 kts 266°
2026-05-01 14:47 51.47834 -0.28766 1893 ft 162 kts 266°
2026-05-01 14:48 51.47819 -0.32310 1450 ft 156 kts 265°
2026-05-01 14:48 51.47807 -0.34054 1238 ft 156 kts 266°
2026-05-01 14:48 51.47792 -0.37534 818 ft 153 kts 266°
2026-05-01 14:49 51.47778 -0.40948 415 ft 150 kts 267°
2026-05-01 14:49 51.47769 -0.44274 106 ft 138 kts 268°
2026-05-01 14:50 51.47759 -0.45804 92 ft 52 kts 270°
2026-05-01 14:50 51.47649 -0.46084 92 ft 12 kts 148°
2026-05-01 14:51 51.47608 -0.46068 93 ft 0 kts 186°
2026-05-01 14:51 51.47590 -0.46070 93 ft 6 kts 186°
2026-05-01 14:52 51.47516 -0.46236 92 ft 14 kts 269°
2026-05-01 14:52 51.47515 -0.46352 92 ft 0 kts 269°
2026-05-01 14:52 51.47515 -0.46353 92 ft 0 kts 263°
2026-05-01 14:53 51.47512 -0.46360 92 ft 1 kts 230°
2026-05-01 14:53 51.47505 -0.46365 92 ft 1 kts 193°
2026-05-01 14:53 51.47496 -0.46354 92 ft 2 kts 118°
2026-05-01 14:53 51.47494 -0.46226 92 ft 15 kts 107°
2026-05-01 14:54 51.47437 -0.46144 93 ft 10 kts 146°
2026-05-01 14:54 51.47427 -0.46133 94 ft 0 kts 146°
2026-05-01 14:54 51.47425 -0.46130 94 ft 0 kts 146°
2026-05-01 14:55 51.47424 -0.46130 94 ft 0 kts 145°
2026-05-01 14:55 51.47424 -0.46129 94 ft 0 kts 141°
2026-05-01 14:55 51.47426 -0.46111 94 ft 4 kts 36°
2026-05-01 14:55 51.47485 -0.46149 92 ft 12 kts 320°
2026-05-01 14:56 51.47514 -0.46289 91 ft 14 kts 273°
2026-05-01 14:56 51.47515 -0.46467 92 ft 16 kts 270°
2026-05-01 14:56 51.47514 -0.46656 92 ft 12 kts 269°
2026-05-01 14:56 51.47498 -0.46785 92 ft 12 kts 262°
2026-05-01 14:57 51.47492 -0.46946 91 ft 15 kts 268°
2026-05-01 14:57 51.47490 -0.47305 95 ft 17 kts 270°
2026-05-01 14:57 51.47489 -0.47509 94 ft 16 kts 271°
2026-05-01 14:58 51.47490 -0.47717 92 ft 19 kts 271°
2026-05-01 14:58 51.47489 -0.47936 91 ft 20 kts 269°
2026-05-01 14:58 51.47488 -0.48176 88 ft 23 kts 271°
2026-05-01 14:58 51.47478 -0.48329 88 ft 7 kts 230°
2026-05-01 14:59 51.47424 -0.48356 89 ft 9 kts 186°
2026-05-01 14:59 51.47343 -0.48360 88 ft 12 kts 180°
2026-05-01 14:59 51.47245 -0.48361 89 ft 14 kts 180°
2026-05-01 14:59 51.47135 -0.48358 89 ft 16 kts 179°
2026-05-01 15:00 51.47002 -0.48353 89 ft 3 kts 155°
2026-05-01 15:00 51.46987 -0.48303 89 ft 5 kts 103°
2026-05-01 15:00 51.46982 -0.48262 90 ft 2 kts 97°
2026-05-01 15:01 51.46981 -0.48236 90 ft 0 kts 91°
2026-05-01 15:01 51.46981 -0.48232 90 ft 0 kts 91°